Flag for U.S.A. Weather past 2 weeks in Angels Camp, California, U.S.A.

Now
65 °F

Sunny.


Feels Like: 65 °F
Forecast: 39 / 55 °F
Wind: 17 mph from Northwest

Location: Modesto City-County-Sham Field

Current Time: Feb 27, 2015 at 4:46:27 PM

Latest Report: Feb 27, 2015 at 3:53 PM


Visibility: 10 mi

Pressure: 29.72 "Hg

Humidity: 42%

Dew point: 41 °F

Location of Angels CampLocation

Historic Weather in Angels Camp — Graph

°F

Angels Camp temperature yesterday

Maximum temperature yesterday: 72 °F (at 3:53 PM)
Minimum temperature yesterday: 43 °F (at 1:53 AM)
Average temperature yesterday: 55 °F

Past Weeks' High & Low Weather Summary

 TemperatureHumidityPressure
High75 °F (Feb 13, 2:53 PM)97% (Feb 16, 5:53 AM)30.35 "Hg (Feb 16, 5:53 AM)
Low37 °F (Feb 25, 6:58 AM)14% (Feb 24, 2:53 PM)29.73 "Hg (Feb 27, 2:53 PM)
Average55 °F73%30.05 "Hg
* Reported Feb 12 2:53 PM — Feb 27 2:53 PM, Angels Camp, Weather by CustomWeather, © 2015

Note: Actual official high and low records may vary slightly from our data, if they occured in-between our weather recording intervals... More about our weather records

Advertising

Angels Camp weather history for previous 24 hours

 ConditionsComfort  
Time TempWeatherWind HumidityBarometerVisibility
2:53 PM
Fri, Feb 27
66 °FPassing clouds.17 mph40%29.73 "Hg10 mi
1:53 PM68 °FBroken clouds.15 mph38%29.75 "Hg10 mi
12:53 PM66 °FPartly sunny.14 mph43%29.78 "Hg10 mi
11:53 AM64 °FPartly sunny.13 mph49%29.82 "Hg10 mi
10:53 AM63 °FBroken clouds.17 mph52%29.85 "Hg10 mi
9:53 AM58 °FSunny.5 mph67%29.86 "Hg10 mi
8:53 AM53 °FSunny.No wind80%29.86 "Hg8 mi
7:53 AM48 °FFog.3 mph86%29.86 "Hg5 mi
6:53 AM43 °FFog.3 mph93%29.85 "Hg4 mi
5:53 AM45 °FFog.No wind90%29.85 "Hg3 mi
4:53 AM47 °FFog.No wind86%29.85 "Hg5 mi
3:53 AM47 °FFog.No wind86%29.84 "Hg5 mi
2:53 AM49 °FClear.No wind84%29.86 "Hg8 mi
1:53 AM50 °FClear.No wind83%29.87 "Hg8 mi
12:53 AM50 °FClear.6 mph80%29.88 "Hg8 mi
11:53 PM
Thu, Feb 26
54 °FClear.3 mph72%29.88 "Hg9 mi
10:53 PM52 °FClear.5 mph77%29.88 "Hg9 mi
9:53 PM50 °FClear.8 mph83%29.88 "Hg9 mi
8:53 PM54 °FClear.No wind72%29.88 "Hg10 mi
7:53 PM58 °FClear.No wind65%29.88 "Hg10 mi
6:53 PM61 °FClear.No wind58%29.88 "Hg10 mi
5:53 PM65 °FSunny.5 mph51%29.88 "Hg10 mi
4:53 PM71 °FSunny.15 mph31%29.88 "Hg10 mi
Weather by CustomWeather, © 2015

See weather overviewHow to use our weather pages